Regional Weather Roundup
Issued by NWS

Home | Current Version | Previous Version | Graphics & Text | Print | Product List | Glossary On
Versions: 1 2 3 4 5 6 7 8 9 10 11 12 13 14 15 16 17 18 19 20 21 22 23 24 25 26 27 28 29 30 31 32 33 34 35 36 37 38 39 40 41 42 43 44 45 46 47 48
000
ASUS45 KSLC 271910
RWRUT

UTAH REGIONAL WEATHER ROUNDUP
NATIONAL WEATHER SERVICE SALT LAKE CITY UT
100 PM MDT WED AUG 27 2014

UTZ001>011-023>025-272000-

NORTHERN UTAH

CITY           SKY/WX    TMP DP  RH WIND       PRES   REMARKS
HILL AFB       PTSUNNY   67  52  58 NW2       30.26S
LOGAN          SUNNY     68  53  58 CALM      30.23F
OGDEN          PTSUNNY   69  51  52 VRB5      30.24F
PROVO AIRPORT  NOT AVBL
SALT LAKE CITY PTSUNNY   71  52  50 NW7       30.22F
VERNAL         RAIN      53  51  93 W3        30.27F FOG
WENDOVER       SUNNY     73  45  35 SE6       30.23F
HEBER CITY     RAIN      61  52  72 W8        30.27S
WEST JORDAN    PTSUNNY   70  59  68 NW3       30.25F

$$

UTZ012>022-026-027-272000-

SOUTHERN UTAH

CITY           SKY/WX    TMP DP  RH WIND       PRES   REMARKS
BRYCE CANYON   MOSUNNY   60  48  64 SE10      30.39F
CEDAR CITY     MOSUNNY   72  44  36 N9        30.29F
MILFORD        SUNNY     71  45  39 CALM      30.27F
MOAB/CYNLANDS  MOSUNNY   70  52  52 NW12G17   30.22F
PRICE          CLOUDY    58  49  72 E3        30.31F
ST GEORGE      CLOUDY    75  54  46 NW5       30.18F

$$

REGIONAL REPORTS     COLORADO/ARIZONA

CITY           SKY/WX    TMP DP  RH WIND       PRES   REMARKS
CRAIG, CO      CLOUDY    62  53  72 CALM      30.26F
GRAND JUNCTION TSTM      57  53  86 N7        30.23F
RIFLE          PTSUNNY   65  49  56 NW3       30.25F
MONTROSE       PTSUNNY   68  52  56 N5        30.28F
CORTEZ         MOSUNNY   67  50  54 NW6       30.33F
PAGE, AZ       SUNNY     72  51  47 N5        30.24F
GRAND CANYON   PTSUNNY   68  50  52 W7G14     30.38S
KINGMAN        SUNNY     86  54  33 SW7       30.16F
FLAGSTAFF      CLOUDY    66  49  54 NW7       30.39F

$$

REGIONAL REPORTS    NEVADA/IDAHO/WYOMING

CITY           SKY/WX    TMP DP  RH WIND       PRES   REMARKS
LAS VEGAS, NV  MOSUNNY   88  47  24 VRB5      30.06F
ELY            SUNNY     69  39  33 CALM      30.33F
ELKO           SUNNY     75  41  29 S3        30.26F
POCATELLO, ID  MOSUNNY   77  48  35 W13G20    30.21F
BURLEY         SUNNY     75  51  43 SW5       30.19F
EVANSTON, WY   CLOUDY    57  47  69 N8        30.34S
ROCK SPRINGS   CLOUDY    55  47  74 N13       30.31S

$$



USA.gov is the U.S. government's official web portal to all federal, state and local government web resources and services.